Location: Unspecified
(0.0000°N, 0.0000°E)
Time: 17:59:52
(UTC+00:00)

STARLINK 1056 - Pass Details

Date: 22 January 2020
Orbit: 548 x 551 km, 53.0° (Epoch: 17 January)

Event Time Altitude Azimuth Distance (km) Brightness Sun altitude
Rises 04:50:04 0° 214° (SW) 2,712 7.0 -19.1°
Reaches altitude 10° 04:52:18 10° 214° (SSW) 1,816 6.1 -18.6°
Maximum altitude 04:56:25 89° 150° (SSE) 550 3.5 -17.6°
Drops below altitude 10° 05:00:32 10° 34° (NE) 1,808 6.4 -16.6°
Sets 05:02:45 0° 34° (NE) 2,698 7.3 -16.1°
